Flag for Taiwan Weather past 2 weeks in Taichung, Taiwan

68 °F

Light rain. Mostly cloudy.

Feels Like: 68 °F
Forecast: 70 / 83 °F
Wind: 15 mph from Northeast

Location: Chiang Kai Shek

Current Time: Nov 30, 2015 at 3:54:48 AM

Latest Report: Nov 30, 2015 at 3:00 AM

Visibility: N/A

Pressure: 30.12 "Hg

Humidity: 83%

Dew point: 63 °F

Location of TaichungLocation

Historic Weather in Taichung — Graph


Taichung temperature yesterday

Maximum temperature yesterday: 77 °F (at 10:30 AM)
Minimum temperature yesterday: 64 °F (at 2:30 AM)
Average temperature yesterday: 70 °F

Past Weeks' High & Low Weather Summary

High88 °F (Nov 16, 12:00 PM)94% (Nov 16, 11:00 PM)30.33 "Hg (Nov 16, 11:00 PM)
Low54 °F (Nov 26, 8:00 PM)40% (Nov 26, 2:00 PM)29.92 "Hg (Nov 16, 2:00 AM)
Average72 °F71%30.07 "Hg
* Reported Nov 15 2:00 AM — Nov 30 2:30 AM, Taichung, Weather by CustomWeather, © 2015

Note: Actual official high and low records may vary slightly from our data, if they occured in-between our weather recording intervals... More about our weather records


Taichung weather history for previous 24 hours

Time TempWeatherWind HumidityBarometerVisibility
2:30 AM
Mon, Nov 30
68 °FMostly cloudy.12 mph83%30.12 "HgN/A
2:00 AM68 °FPartly cloudy.12 mph83%30.12 "HgN/A
1:30 AM68 °FPartly cloudy.8 mph83%30.12 "HgN/A
1:00 AM70 °FPartly cloudy.10 mph78%30.12 "HgN/A
12:30 AM68 °FPartly cloudy.6 mph88%30.15 "HgN/A
12:00 AM68 °FPartly cloudy.8 mph88%30.15 "HgN/A
11:30 PM
Sun, Nov 29
68 °FLight rain. Partly cloudy.7 mph88%30.15 "HgN/A
11:00 PM70 °FPartly cloudy.12 mph83%30.15 "HgN/A
10:48 PM70 °FPartly cloudy.12 mph83%30.15 "HgN/A
10:30 PM70 °FPartly cloudy.10 mph83%30.15 "HgN/A
10:00 PM70 °FPassing clouds.16 mph78%30.15 "HgN/A
9:30 PM72 °FPartly cloudy.17 mph78%30.15 "HgN/A
9:00 PM72 °FPartly cloudy.14 mph73%30.15 "HgN/A
8:30 PM72 °FPartly cloudy.14 mph73%30.15 "HgN/A
8:00 PM72 °FPartly cloudy.15 mph73%30.15 "HgN/A
7:30 PM72 °FPartly cloudy.13 mph73%30.15 "HgN/A
7:00 PM72 °FPassing clouds.12 mph73%30.15 "HgN/A
6:30 PM72 °FPartly cloudy.13 mph73%30.15 "HgN/A
5:30 PM72 °FPassing clouds.14 mph73%30.15 "HgN/A
5:00 PM72 °FMostly cloudy.14 mph78%30.12 "HgN/A
4:30 PM72 °FPartly sunny.15 mph73%30.12 "HgN/A
4:00 PM72 °FBroken clouds.14 mph78%30.12 "HgN/A
3:30 PM72 °FPartly sunny.13 mph78%30.12 "HgN/A
3:00 PM72 °FMostly cloudy.13 mph78%30.12 "HgN/A
2:30 PM72 °FMostly cloudy.15 mph78%30.12 "HgN/A
1:00 PM77 °FPartly sunny.15 mph69%30.12 "HgN/A
12:30 PM77 °FPartly sunny.9 mph65%30.12 "HgN/A
12:00 PM77 °FScattered clouds.8 mph61%30.15 "HgN/A
11:30 AM77 °FScattered clouds.9 mph61%30.15 "HgN/A
11:00 AM77 °FScattered clouds.8 mph57%30.15 "HgN/A
10:30 AM77 °FScattered clouds.7 mph57%30.18 "HgN/A
10:00 AM75 °FScattered clouds.5 mph57%30.18 "HgN/A
9:30 AM75 °FScattered clouds.9 mph57%30.18 "HgN/A
9:00 AM73 °FScattered clouds.6 mph53%30.18 "HgN/A
8:30 AM72 °FScattered clouds.6 mph57%30.15 "HgN/A
7:30 AM66 °FPartly sunny.6 mph68%30.15 "HgN/A
7:00 AM64 °FPartly sunny.6 mph73%30.15 "HgN/A
6:00 AM64 °FPassing clouds.1 mph73%30.15 "HgN/A
5:00 AM64 °FPassing clouds.5 mph78%30.15 "HgN/A
4:30 AM64 °FPassing clouds.5 mph78%30.15 "HgN/A
4:00 AM64 °FPassing clouds.5 mph83%30.15 "HgN/A
3:30 AM64 °FPassing clouds.5 mph83%30.15 "HgN/A
3:00 AM64 °FPassing clouds.3 mph83%30.15 "HgN/A
Weather by CustomWeather, © 2015

See weather overviewHow to use our weather pages